Weather History for KI75 - July, 2013

Change the Weather History Date:

Friday, July 26, 2013

  Actual Average (KLWD) Record (KLWD)
Temperature  
Mean Temperature 68 °F 75 °F  
Max Temperature 78 °F 85 °F - ()
Min Temperature 57 °F 66 °F - ()
Degree Days  
Heating Degree Days 0 0  
Month to date heating degree days 0  
Since 1 June heating degree days 19  
Since 1 July heating degree days 0  
Cooling Degree Days 2 10  
Month to date cooling degree days 263  
Year to date cooling degree days 510  
Since 1 June cooling degree days 456  
Growing Degree Days 18 (Base 50)    
Moisture  
Dew Point 59 °F    
Average Humidity 70    
Maximum Humidity 92    
Minimum Humidity 37    
Precipitation  
Precipitation 0.30 in 0.15 in - ()
Month to date precipitation 4.25  
Sea Level Pressure  
Sea Level Pressure 30.02 in    
Wind  
Wind Speed 7 mph (WNW)    
Max Wind Speed 18 mph    
Max Gust Speed 24 mph    
Visibility 10 miles    
Events Rain    
T = Trace of Precipitation, MM = Missing Value Source: NWS Daily Summary

Daily Weather History Graph

Daily Weather History Graph

Search for Another Location

Airport or City:

Trip Planner

Search our weather history database for the weather conditions in past years. The results will help you decide how hot, cold, wet, or windy it might be!

Date:

Astronomy

Jul. 26, 2013 Rise Set
Actual Time 6:05 AM CDT 8:36 PM CDT
Civil Twilight 5:33 AM CDT 9:08 PM CDT
Nautical Twilight 4:54 AM CDT 9:47 PM CDT
Astronomical Twilight 4:10 AM CDT 10:31 PM CDT
Moon 10:48 PM CDT (7/26) 10:45 AM CDT (7/26)
Length of Visible Light 15h 34m
Length of Day
14h 31m
Waning Gibbous, 80% of the Moon is Illuminated
Jul 26
Waning Gibbous
Jul 29
Last Quarter
Aug 6
New
Aug 14
First Quarter
Aug 20
Full

Hourly Weather History & Observations

Time (CDT) Temp. Dew Point Humidity Pressure Visibility Wind Dir Wind Speed Gust Speed Precip Events Conditions
12:15 AM 68.9 °F 63.0 °F 81% 30.02 in 10.0 mi South 3.5 mph - N/A   Mostly Cloudy
12:35 AM 68.4 °F 63.0 °F 83% 30.02 in 10.0 mi Calm Calm - N/A   Mostly Cloudy
12:55 AM 68.5 °F 62.2 °F 80% 30.03 in 10.0 mi SSW 4.6 mph - N/A   Overcast
1:15 AM 68.0 °F 61.2 °F 79% 30.02 in 10.0 mi SSW 10.4 mph - N/A   Overcast
1:35 AM 67.3 °F 60.8 °F 80% 30.01 in 10.0 mi South 8.1 mph - N/A   Overcast
1:55 AM 66.7 °F 61.7 °F 84% 30.00 in 10.0 mi South 5.8 mph - N/A   Overcast
2:15 AM 66.2 °F 62.6 °F 88% 30.00 in 10.0 mi South 5.8 mph - N/A   Overcast
2:35 AM 66.2 °F 63.0 °F 89% 29.99 in 10.0 mi SSW 4.6 mph - N/A   Overcast
2:55 AM 66.6 °F 63.5 °F 90% 30.00 in 7.0 mi SSW 3.5 mph - 0.02 in Rain Rain
3:15 AM 66.6 °F 63.9 °F 91% 29.99 in 10.0 mi South 5.8 mph - 0.01 in Rain Rain
3:35 AM 66.7 °F 64.0 °F 91% 29.99 in 10.0 mi SSW 4.6 mph - 0.01 in   Overcast
3:55 AM 66.9 °F 64.2 °F 91% 29.98 in 10.0 mi South 6.9 mph - 0.01 in   Overcast
4:15 AM 66.7 °F 64.0 °F 91% 29.99 in 10.0 mi NNE 5.8 mph - N/A Rain Light Rain
4:35 AM 67.1 °F 64.4 °F 91% 29.99 in 4.0 mi SW 4.6 mph - 0.10 in Rain Heavy Rain
4:55 AM 67.1 °F 64.4 °F 91% 29.98 in 3.0 mi South 5.8 mph - 0.26 in Rain Rain
5:15 AM 67.1 °F 64.4 °F 91% 29.98 in 10.0 mi SSW 3.5 mph - 0.01 in   Overcast
5:35 AM 67.3 °F 64.4 °F 90% 29.98 in 10.0 mi South 5.8 mph - 0.01 in   Overcast
5:55 AM 67.3 °F 64.4 °F 90% 29.99 in 10.0 mi SSW 5.8 mph - 0.01 in   Overcast
6:15 AM 67.1 °F 64.4 °F 91% 29.99 in 10.0 mi SSW 5.8 mph - N/A   Overcast
6:35 AM 67.1 °F 64.8 °F 92% 30.00 in 10.0 mi SW 4.6 mph - N/A   Overcast
6:55 AM 67.1 °F 64.8 °F 92% 30.00 in 7.0 mi SW 4.6 mph - N/A   Overcast
7:15 AM 67.6 °F 65.3 °F 92% 30.00 in 7.0 mi SW 4.6 mph - N/A   Scattered Clouds
7:35 AM 68.4 °F 65.7 °F 91% 29.99 in 10.0 mi WSW 5.8 mph - N/A   Clear
7:55 AM 69.3 °F 66.0 °F 89% 30.00 in 10.0 mi West 6.9 mph - N/A   Scattered Clouds
8:15 AM 70.3 °F 66.6 °F 88% 30.01 in 10.0 mi West 8.1 mph - N/A   Scattered Clouds
8:35 AM 70.2 °F 66.4 °F 88% 30.01 in 10.0 mi West 10.4 mph - N/A   Overcast
8:55 AM 71.2 °F 66.2 °F 84% 30.01 in 10.0 mi WNW 9.2 mph - N/A   Overcast
9:15 AM 71.8 °F 66.0 °F 82% 30.01 in 10.0 mi WNW 10.4 mph - N/A   Overcast
9:35 AM 72.7 °F 66.2 °F 80% 30.01 in 10.0 mi NW 9.2 mph - N/A   Scattered Clouds
9:55 AM 74.3 °F 66.2 °F 76% 30.01 in 10.0 mi WNW 11.5 mph - N/A   Mostly Cloudy
10:15 AM 74.3 °F 65.7 °F 74% 30.02 in 10.0 mi NW 8.1 mph - N/A   Mostly Cloudy
10:35 AM 73.9 °F 65.7 °F 75% 30.03 in 10.0 mi NW 11.5 mph 16.1 mph N/A   Overcast
10:55 AM 73.0 °F 65.3 °F 77% 30.03 in 10.0 mi NW 13.8 mph 17.3 mph N/A   Overcast
11:15 AM 74.3 °F 65.5 °F 74% 30.03 in 10.0 mi WNW 10.4 mph - N/A   Overcast
11:35 AM 75.0 °F 62.8 °F 66% 30.03 in 10.0 mi NW 12.7 mph - N/A   Scattered Clouds
11:55 AM 75.9 °F 61.2 °F 60% 30.03 in 10.0 mi NNW 9.2 mph 16.1 mph N/A   Scattered Clouds
12:15 PM 76.1 °F 58.6 °F 55% 30.03 in 10.0 mi NNW 13.8 mph - N/A   Scattered Clouds
12:35 PM 77.0 °F 57.6 °F 51% 30.03 in 10.0 mi NW 15.0 mph 19.6 mph N/A   Clear
12:55 PM 77.4 °F 57.0 °F 49% 30.03 in 10.0 mi NW 13.8 mph 17.3 mph N/A   Clear
1:15 PM 77.9 °F 56.8 °F 48% 30.03 in 10.0 mi NW 15.0 mph 18.4 mph N/A   Clear
1:35 PM 77.4 °F 55.9 °F 47% 30.03 in 10.0 mi NW 16.1 mph 20.7 mph N/A   Scattered Clouds
1:55 PM 77.2 °F 55.0 °F 46% 30.03 in 10.0 mi NW 13.8 mph 21.9 mph N/A   Scattered Clouds
2:15 PM 77.2 °F 52.3 °F 42% 30.03 in 10.0 mi NW 16.1 mph 20.7 mph N/A   Clear
2:35 PM 77.5 °F 49.1 °F 37% 30.03 in 10.0 mi WNW 16.1 mph 20.7 mph N/A   Clear
2:55 PM 76.8 °F 50.7 °F 40% 30.03 in 10.0 mi NNW 11.5 mph 20.7 mph N/A   Clear
3:15 PM 77.0 °F 51.1 °F 40% 30.03 in 10.0 mi NW 11.5 mph 19.6 mph N/A   Clear
3:35 PM 77.2 °F 53.1 °F 43% 30.03 in 10.0 mi NNW 15.0 mph 20.7 mph N/A   Clear
3:55 PM 76.5 °F 51.6 °F 42% 30.03 in 10.0 mi NNW 13.8 mph 23.0 mph N/A   Clear
4:15 PM 77.0 °F 52.0 °F 42% 30.02 in 10.0 mi WNW 12.7 mph 20.7 mph N/A   Clear
4:35 PM 75.9 °F 54.3 °F 47% 30.02 in 10.0 mi NNW 18.4 mph 23.0 mph N/A   Scattered Clouds
4:55 PM 75.7 °F 54.5 °F 48% 30.03 in 10.0 mi NW 15.0 mph 23.0 mph N/A   Clear
5:15 PM 75.2 °F 54.5 °F 48% 30.03 in 10.0 mi NNW 16.1 mph 24.2 mph N/A   Scattered Clouds
5:35 PM 74.1 °F 53.6 °F 49% 30.04 in 10.0 mi NNW 18.4 mph 23.0 mph N/A   Scattered Clouds
5:55 PM 73.4 °F 53.1 °F 49% 30.04 in 10.0 mi NW 15.0 mph 21.9 mph N/A   Clear
6:15 PM 72.7 °F 52.0 °F 48% 30.04 in 10.0 mi NNW 12.7 mph - N/A   Clear
6:35 PM 72.0 °F 52.7 °F 51% 30.04 in 10.0 mi NNW 15.0 mph - N/A   Scattered Clouds
6:55 PM 70.9 °F 51.8 °F 51% 30.04 in 10.0 mi NNW 11.5 mph - N/A   Clear
7:15 PM 70.0 °F 52.5 °F 54% 30.05 in 10.0 mi North 11.5 mph 19.6 mph N/A   Scattered Clouds
7:35 PM 68.9 °F 51.3 °F 53% 30.05 in 10.0 mi NNW 10.4 mph - N/A   Scattered Clouds
7:55 PM 68.2 °F 52.2 °F 56% 30.05 in 10.0 mi NNW 6.9 mph - N/A   Mostly Cloudy
8:15 PM 66.7 °F 52.2 °F 59% 30.05 in 10.0 mi NNW 8.1 mph - N/A   Scattered Clouds
8:35 PM 64.8 °F 51.8 °F 63% 30.05 in 10.0 mi NW 4.6 mph - N/A   Clear
8:55 PM 63.1 °F 51.8 °F 66% 30.06 in 10.0 mi NW 4.6 mph - N/A   Clear
9:15 PM 61.9 °F 51.8 °F 69% 30.06 in 10.0 mi WNW 4.6 mph - N/A   Clear
9:35 PM 60.8 °F 52.3 °F 74% 30.06 in 10.0 mi West 3.5 mph - N/A   Clear
9:55 PM 59.5 °F 52.0 °F 76% 30.06 in 10.0 mi WNW 4.6 mph - N/A   Clear
10:15 PM 59.2 °F 51.4 °F 75% 30.07 in 10.0 mi WNW 5.8 mph - N/A   Clear
10:35 PM 60.1 °F 51.4 °F 73% 30.07 in 10.0 mi NW 5.8 mph - N/A   Clear
10:55 PM 59.0 °F 51.3 °F 75% 30.07 in 10.0 mi WNW 5.8 mph - N/A   Clear
11:15 PM 59.2 °F 51.1 °F 74% 30.07 in 10.0 mi NW 5.8 mph - N/A   Clear
11:35 PM 58.5 °F 50.9 °F 76% 30.07 in 10.0 mi NW 3.5 mph - N/A   Clear
11:55 PM 57.2 °F 50.7 °F 79% 30.07 in 10.0 mi WNW 3.5 mph - N/A   Clear